• In United Kingdom
  • List of Countries
  • For 7 days
  • Water Temperature
  • Satellite Maps
  • Weather Map
  • Weather Widgets
  • user-avatar
    Login

    Hourly Weather Louangphabang

    Today, 13 November, Tuesday

    Time Temperature Precipitation Wind Pressure Humidity
    00:00 +19°C° 0.3 mm 0 mps 698 mmHg 97%
    01:00 +18°C° 0 mm 0 mps 698 mmHg 97%
    02:00 +18°C° 0.3 mm 0 mps 698 mmHg 97%
    03:00 +18°C° 0.3 mm 0 mps 697 mmHg 97%
    04:00 +18°C° 0.3 mm 0 mps 697 mmHg 97%
    05:00 +18°C° 0.3 mm 0 mps 697 mmHg 97%
    06:00 +19°C° 0.3 mm 0 mps 698 mmHg 97%
    07:00 +19°C° 0.3 mm 0 mps 698 mmHg 96%
    08:00 +20°C° 0.2 mm 0 mps 698 mmHg 92%
    09:00 +22°C° 0.2 mm 0 mps 699 mmHg 87%
    10:00 +23°C° 0.2 mm 0 mps 699 mmHg 82%
    11:00 +24°C° 0.4 mm 0 mps 698 mmHg 78%
    12:00 +25°C° 0.4 mm 0 mps 698 mmHg 74%
    13:00 +26°C° 0.4 mm 0 mps 697 mmHg 70%
    14:00 +26°C° 0.4 mm 0 mps 696 mmHg 73%
    15:00 +26°C° 0.4 mm 0 mps 696 mmHg 76%
    16:00 +27°C° 0.4 mm 1 mps 695 mmHg 79%
    17:00 +24°C° 0.5 mm 0 mps 695 mmHg 84%
    18:00 +22°C° 0.5 mm 0 mps 696 mmHg 88%
    19:00 +21°C° 0.5 mm 0 mps 696 mmHg 93%
    20:00 +20°C° 0.3 mm 0 mps 696 mmHg 94%
    21:00 +20°C° 0.3 mm 0 mps 697 mmHg 95%
    22:00 +20°C° 0.3 mm 0 mps 697 mmHg 97%
    23:00 +19°C° 0.2 mm 0 mps 697 mmHg 97%

    Tomorrow, 14 November, Wednesday

    Time Temperature Precipitation Wind Pressure Humidity
    00:00 +19°C° 0.2 mm 0 mps 697 mmHg 98%
    01:00 +19°C° 0.2 mm 0 mps 697 mmHg 98%
    02:00 +19°C° 0.5 mm 0 mps 697 mmHg 98%
    03:00 +19°C° 0.5 mm 0 mps 697 mmHg 98%
    04:00 +18°C° 0.5 mm 0 mps 696 mmHg 99%
    05:00 +18°C° 0.2 mm 0 mps 697 mmHg 98%
    06:00 +19°C° 0.2 mm 0 mps 697 mmHg 98%
    07:00 +19°C° 0.2 mm 0 mps 698 mmHg 97%
    08:00 +21°C° 0.1 mm 0 mps 698 mmHg 88%
    09:00 +24°C° 0.1 mm 0 mps 699 mmHg 79%
    10:00 +26°C° 0.1 mm 0 mps 700 mmHg 69%
    11:00 +27°C° 0.6 mm 0 mps 699 mmHg 70%
    12:00 +27°C° 0.6 mm 0 mps 698 mmHg 71%
    13:00 +29°C° 0.6 mm 1 mps 697 mmHg 73%
    14:00 +27°C° 0.7 mm 0 mps 697 mmHg 76%
    15:00 +26°C° 0.7 mm 0 mps 696 mmHg 79%
    16:00 +26°C° 0.7 mm 0 mps 696 mmHg 81%
    17:00 +24°C° 0.3 mm 0 mps 696 mmHg 86%
    18:00 +23°C° 0.3 mm 0 mps 696 mmHg 90%
    19:00 +21°C° 0.3 mm 0 mps 697 mmHg 94%
    20:00 +21°C° 0.3 mm 0 mps 697 mmHg 95%
    21:00 +20°C° 0.3 mm 0 mps 698 mmHg 96%
    22:00 +20°C° 0.3 mm 0 mps 698 mmHg 97%
    23:00 +20°C° 0.6 mm 0 mps 698 mmHg 98%

    Day after tomorrow, 15 November, Thursday

    Time Temperature Precipitation Wind Pressure Humidity
    00:00 +20°C° 0.6 mm 0 mps 698 mmHg 98%
    01:00 +19°C° 0.6 mm 0 mps 698 mmHg 98%
    02:00 +19°C° 0.6 mm 0 mps 698 mmHg 98%
    03:00 +19°C° 0.6 mm 0 mps 697 mmHg 98%
    04:00 +19°C° 0.6 mm 0 mps 697 mmHg 98%
    05:00 +19°C° 0.5 mm 0 mps 698 mmHg 98%
    06:00 +19°C° 0.5 mm 0 mps 698 mmHg 98%
    07:00 +19°C° 0.5 mm 0 mps 699 mmHg 98%
    08:00 +22°C° 0.1 mm 0 mps 699 mmHg 88%
    09:00 +24°C° 0.1 mm 0 mps 700 mmHg 79%
    10:00 +27°C° 0.1 mm 0 mps 701 mmHg 69%
    11:00 +27°C° 0.6 mm 0 mps 700 mmHg 71%
    12:00 +27°C° 0.6 mm 0 mps 699 mmHg 72%
    13:00 +30°C° 0.6 mm 1 mps 698 mmHg 73%
    14:00 +29°C° 1.1 mm 1 mps 698 mmHg 74%
    15:00 +29°C° 1.1 mm 1 mps 697 mmHg 76%
    16:00 +28°C° 1.1 mm 1 mps 697 mmHg 77%
    17:00 +25°C° 0.9 mm 0 mps 697 mmHg 82%
    18:00 +23°C° 0.9 mm 0 mps 697 mmHg 87%
    19:00 +21°C° 0.9 mm 0 mps 697 mmHg 92%
    20:00 +21°C° 0.5 mm 0 mps 698 mmHg 93%
    21:00 +20°C° 0.5 mm 0 mps 698 mmHg 94%
    22:00 +20°C° 0.5 mm 0 mps 699 mmHg 96%
    23:00 +20°C° 0.5 mm 0 mps 699 mmHg 97%

    16 November, Friday

    Time Temperature Precipitation Wind Pressure Humidity
    00:00 +20°C° 0.5 mm 0 mps 698 mmHg 97%
    01:00 +19°C° 0.5 mm 0 mps 698 mmHg 98%
    02:00 +19°C° 0.2 mm 0 mps 698 mmHg 98%
    03:00 +19°C° 0.2 mm 0 mps 698 mmHg 98%
    04:00 +19°C° 0.2 mm 0 mps 697 mmHg 98%
    05:00 +19°C° 0.1 mm 0 mps 698 mmHg 98%
    06:00 +19°C° 0.1 mm 0 mps 698 mmHg 98%
    07:00 +19°C° 0.1 mm 0 mps 699 mmHg 97%
    08:00 +22°C° 0.2 mm 0 mps 699 mmHg 90%
    09:00 +24°C° 0.2 mm 0 mps 700 mmHg 82%
    10:00 +26°C° 0.2 mm 0 mps 700 mmHg 74%
    11:00 +27°C° 0.7 mm 0 mps 700 mmHg 73%
    12:00 +28°C° 0.7 mm 0 mps 699 mmHg 73%
    13:00 +30°C° 0.7 mm 1 mps 698 mmHg 72%
    14:00 +28°C° 0.8 mm 0 mps 697 mmHg 73%
    15:00 +27°C° 0.8 mm 0 mps 697 mmHg 74%
    16:00 +27°C° 0.8 mm 0 mps 696 mmHg 76%
    17:00 +25°C° 0.2 mm 0 mps 697 mmHg 81%
    18:00 +23°C° 0.2 mm 0 mps 697 mmHg 86%
    19:00 +21°C° 0.2 mm 0 mps 697 mmHg 91%
    20:00 +21°C° 0.3 mm 0 mps 698 mmHg 92%
    21:00 +21°C° 0.3 mm 0 mps 698 mmHg 94%
    22:00 +20°C° 0.3 mm 0 mps 698 mmHg 95%
    23:00 +20°C° 0.1 mm 0 mps 698 mmHg 96%

    17 November, Saturday

    Time Temperature Precipitation Wind Pressure Humidity
    00:00 +20°C° 0.1 mm 0 mps 698 mmHg 96%
    01:00 +19°C° 0.1 mm 0 mps 698 mmHg 97%
    02:00 +19°C° 0 mm 0 mps 697 mmHg 97%
    03:00 +19°C° 0 mm 0 mps 697 mmHg 97%
    04:00 +19°C° 0 mm 0 mps 697 mmHg 98%
    05:00 +19°C° 0 mm 0 mps 698 mmHg 97%
    06:00 +19°C° 0 mm 0 mps 698 mmHg 97%
    07:00 +19°C° 0 mm 0 mps 698 mmHg 96%
    08:00 +22°C° 0.1 mm 0 mps 699 mmHg 87%
    09:00 +25°C° 0.1 mm 0 mps 700 mmHg 77%
    10:00 +27°C° 0.1 mm 0 mps 700 mmHg 68%
    11:00 +28°C° 0.6 mm 0 mps 700 mmHg 68%
    12:00 +30°C° 0.6 mm 1 mps 699 mmHg 67%
    13:00 +30°C° 0.6 mm 1 mps 698 mmHg 67%
    14:00 +30°C° 0.5 mm 1 mps 697 mmHg 67%
    15:00 +30°C° 0.5 mm 1 mps 697 mmHg 68%
    16:00 +29°C° 0.5 mm 1 mps 696 mmHg 69%
    17:00 +25°C° 0.1 mm 0 mps 697 mmHg 75%
    18:00 +24°C° 0.1 mm 0 mps 697 mmHg 82%
    19:00 +22°C° 0.1 mm 0 mps 697 mmHg 89%
    20:00 +21°C° 0.6 mm 0 mps 698 mmHg 90%
    21:00 +21°C° 0.6 mm 0 mps 698 mmHg 92%
    22:00 +20°C° 0.6 mm 0 mps 698 mmHg 94%
    23:00 +20°C° 0.4 mm 0 mps 698 mmHg 95%

    18 November, Sunday

    Time Temperature Precipitation Wind Pressure Humidity
    00:00 +20°C° 0.4 mm 0 mps 698 mmHg 96%
    01:00 +19°C° 0.4 mm 0 mps 698 mmHg 97%
    02:00 +19°C° 0 mm 0 mps 698 mmHg 97%
    03:00 +19°C° 0 mm 0 mps 698 mmHg 98%
    04:00 +19°C° 0 mm 0 mps 698 mmHg 98%
    05:00 +19°C° 0 mm 0 mps 698 mmHg 97%
    06:00 +19°C° 0 mm 0 mps 699 mmHg 97%
    07:00 +19°C° 0 mm 0 mps 699 mmHg 96%
    08:00 +22°C° 0 mm 0 mps 700 mmHg 85%
    09:00 +25°C° 0 mm 0 mps 700 mmHg 74%
    10:00 +28°C° 0 mm 0 mps 701 mmHg 63%
    11:00 +29°C° 0.2 mm 0 mps 700 mmHg 59%
    12:00 +30°C° 0.2 mm 0 mps 700 mmHg 55%
    13:00 +31°C° 0.2 mm 0 mps 699 mmHg 52%
    14:00 +30°C° 0.2 mm 0 mps 698 mmHg 54%
    15:00 +29°C° 0.2 mm 0 mps 698 mmHg 57%
    16:00 +28°C° 0.2 mm 0 mps 697 mmHg 60%
    17:00 +26°C° 0.1 mm 0 mps 698 mmHg 68%
    18:00 +24°C° 0.1 mm 0 mps 698 mmHg 76%
    19:00 +22°C° 0.1 mm 0 mps 698 mmHg 83%
    20:00 +21°C° 0.2 mm 0 mps 698 mmHg 86%
    21:00 +21°C° 0.2 mm 0 mps 699 mmHg 88%
    22:00 +20°C° 0.2 mm 0 mps 699 mmHg 91%
    23:00 +20°C° 0.1 mm 0 mps 699 mmHg 92%
    Show more